Terug naar catalogus

STARLINK-30391

ActiefCommunicatieVLEO
NORAD 57817·PAYLOAD·🇺🇸 United States

Gelanceerd Sep 9, 2023 vanaf Cape Canaveral Space Force Station

Loading…

Volgende Passages (komende 24 uur)

TLE

VersSource: CelesTrak SupGP

Epoch: Sep 15, 2026, 02:04 UTC

1 57817C 23138K   26258.08659722 -.00018060  00000+0 -65418-3 0  2588
2 57817  43.0004 244.8667 0001385 265.4225 346.6756 15.27585085    15

Volg STARLINK-30391 in realtime met AllMySat

Download on the App Store